Location: Cucq
(50.4773°N, 1.6202°E)
Time: 17:40:52
(UTC+00:00)

FALCON 9 DEB - Pass Details

Date: 07 August 2020
Orbit: 427 x 441 km, 53.0° (Epoch: 25 September)

Event Time Altitude Azimuth Distance (km) Brightness Sun altitude
Exits shadow 01:47:13 10° 289° (WNW) 1,547 5.8 -19.1°
Maximum altitude 01:50:41 68° 13° (NNE) 480 3.4 -18.9°
Drops below altitude 10° 01:54:10 10° 98° (E) 1,553 6.2 -18.6°
Sets 01:56:17 0° 101° (E) 2,418 7.2 -18.4°
